| time (UTC) | temp C | wind direction | speed KPH | gust KPH | rain 1hr cm | rain 24hr cm | rain mn cm | humidity % | barometer mb |
| 20260505012000 | 24 | 169 | 9.7 | 14.5 | 0.00 | 0.00 | 0.00 | 72 | 1006.8 |
| 20260505004957 | 25 | 163 | 6.4 | 11.3 | 0.00 | 0.00 | 0.00 | 70 | 1006.9 |
| 20260505001956 | 25 | 183 | 6.4 | 9.7 | 0.00 | 0.00 | 0.00 | 69 | 1006.9 |
| 20260504234956 | 25 | 186 | 9.7 | 14.5 | 0.00 | 0.00 | 0.00 | 67 | 1007.1 |
| 20260504231954 | 26 | 202 | 3.2 | 3.2 | 0.00 | 0.00 | 0.00 | 66 | 1007.3 |
| 20260504224953 | 26 | 163 | 3.2 | 4.8 | 0.00 | 0.00 | 0.00 | 64 | 1007.5 |
| 20260504221952 | 26 | 201 | 8.0 | 9.7 | 0.00 | 0.00 | 0.00 | 64 | 1007.7 |
| 20260504214950 | 27 | 188 | 8.0 | 9.7 | 0.00 | 0.00 | 0.00 | 63 | 1008.1 |
| 20260504211948 | 27 | 161 | 9.7 | 14.5 | 0.00 | 0.00 | 0.00 | 61 | 1008.7 |
| 20260504204942 | 26 | 176 | 6.4 | 9.7 | 0.00 | 0.00 | 0.00 | 63 | 1009.1 |
| 20260504201937 | 26 | 130 | 11.3 | 14.5 | 0.00 | 0.00 | 0.00 | 61 | 1009.8 |
| 20260504194936 | 27 | 152 | 16.1 | 22.5 | 0.00 | 0.00 | 0.00 | 59 | 1010.5 |
| 20260504191931 | 26 | 148 | 12.9 | 14.5 | 0.00 | 0.00 | 0.00 | 58 | 1010.9 |
| 20260504184927 | 26 | 167 | 4.8 | 8.0 | 0.00 | 0.00 | 0.00 | 58 | 1011.0 |
| 20260504181926 | 26 | 188 | 11.3 | 14.5 | 0.00 | 0.00 | 0.00 | 57 | 1011.4 |
| 20260504174924 | 26 | 186 | 11.3 | 12.9 | 0.00 | 0.00 | 0.00 | 55 | 1012.0 |
| 20260504171922 | 25 | 150 | 4.8 | 4.8 | 0.00 | 0.00 | 0.00 | 54 | 1012.2 |
| 20260504081840 | 17 | 141 | 4.8 | 8.0 | 0.00 | 0.00 | 0.00 | 72 | 1014.4 |
| 20260504044823 | 19 | 51 | 4.8 | 9.7 | 0.00 | 0.00 | 0.00 | 63 | 1016.6 |
| 20260504041822 | 20 | 179 | 1.6 | 1.6 | 0.00 | 0.00 | 0.00 | 62 | 1016.5 |
| 20260504034820 | 20 | 192 | 3.2 | 3.2 | 0.00 | 0.00 | 0.00 | 60 | 1016.7 |
| 20260504031821 | 21 | 165 | 1.6 | 3.2 | 0.00 | 0.00 | 0.00 | 57 | 1016.4 |
| 20260504024819 | 21 | 160 | 4.8 | 4.8 | 0.00 | 0.00 | 0.00 | 54 | 1016.3 |
| 20260504021816 | 22 | 162 | 4.8 | 4.8 | 0.00 | 0.00 | 0.00 | 52 | 1016.4 |
| 20260504014813 | 23 | 156 | 4.8 | 8.0 | 0.00 | 0.00 | 0.00 | 49 | 1016.1 |